Weather History for Thermal, CA

Change the Weather History Date:

Tuesday, September 17, 2013

  Actual Average Record
Temperature  
Mean Temperature 92 °F 84 °F  
Max Temperature 108 °F 101 °F 112 °F (1962)
Min Temperature 76 °F 66 °F 56 °F (2006)
Degree Days  
Heating Degree Days 0 0  
Month to date heating degree days 0 0  
Since 1 July heating degree days 0 0  
Cooling Degree Days 27 19  
Month to date cooling degree days 433 358  
Year to date cooling degree days 3717 3191  
Growing Degree Days 42 (Base 50)    
Moisture  
Dew Point 38 °F    
Average Humidity 19    
Maximum Humidity 31    
Minimum Humidity 6    
Precipitation  
Precipitation 0.00 in 0.01 in 1.30 in (1963)
Month to date precipitation 0.14 0.14  
Year to date precipitation 1.83 2.29  
Since 1 July precipitation 1.39 0.47  
Snow  
Snow 0.00 in - - ()
Month to date snowfall 0.0  
Year to date snowfall 0.0  
Since 1 July snowfall 0.0  
Snow Depth 0.00 in    
Sea Level Pressure  
Sea Level Pressure 29.59 in    
Wind  
Wind Speed 6 mph (NNW)    
Max Wind Speed 14 mph    
Max Gust Speed 20 mph    
Visibility 10 miles    
Events      
T = Trace of Precipitation, MM = Missing Value Source: NWS Daily Summary

Daily Weather History Graph

Daily Weather History Graph

Search for Another Location

Airport:

Trip Planner

Search our weather history database for the weather conditions in past years. The results will help you decide how hot, cold, wet, or windy it might be!

Date:

Astronomy

Sep. 17, 2013 Rise Set
Actual Time 6:29 AM PDT 6:47 PM PDT
Civil Twilight 6:04 AM PDT 7:12 PM PDT
Nautical Twilight 5:35 AM PDT 7:41 PM PDT
Astronomical Twilight 5:05 AM PDT 8:11 PM PDT
Moon 5:35 PM PDT (9/17) 4:33 AM PDT (9/17)
Length of Visible Light 13h 08m
Length of Day
12h 18m
Waxing Gibbous, 96% of the Moon is Illuminated
Sep 17
Waxing Gibbous
Sep 19
Full
Sep 26
Last Quarter
Oct 4
New
Oct 11
First Quarter

Hourly Weather History & Observations

Time (PDT) Temp. Dew Point Humidity Pressure Visibility Wind Dir Wind Speed Gust Speed Precip Events Conditions
12:52 AM 90.0 °F 46.9 °F 23% 29.63 in 10.0 mi NNW 12.7 mph - N/A   Clear
1:52 AM 90.0 °F 42.1 °F 19% 29.63 in 10.0 mi NNW 10.4 mph - N/A   Clear
2:52 AM 89.1 °F 39.9 °F 18% 29.62 in 10.0 mi North 5.8 mph - N/A   Clear
3:52 AM 88.0 °F 39.0 °F 18% 29.61 in 10.0 mi NNW 10.4 mph - N/A   Clear
4:52 AM 87.1 °F 39.0 °F 18% 29.61 in 10.0 mi NW 8.1 mph - N/A   Clear
5:52 AM 88.0 °F 35.1 °F 15% 29.62 in 10.0 mi NW 10.4 mph - N/A   Clear
6:52 AM 77.0 °F 42.1 °F 29% 29.64 in 10.0 mi Calm Calm - N/A   Clear
7:52 AM 84.0 °F 50.0 °F 31% 29.67 in 10.0 mi NNE 3.5 mph - N/A   Clear
8:52 AM 93.0 °F 42.1 °F 17% 29.64 in 10.0 mi NW 5.8 mph - N/A   Clear
9:52 AM 98.1 °F 37.9 °F 12% 29.64 in 10.0 mi NNW 5.8 mph - N/A   Clear
10:52 AM 100.9 °F 35.1 °F 10% 29.63 in 10.0 mi Calm Calm - N/A   Clear
11:52 AM 102.9 °F 37.0 °F 10% 29.61 in 10.0 mi Variable 3.5 mph - N/A   Clear
12:52 PM 105.1 °F 42.1 °F 12% 29.58 in 10.0 mi SSE 9.2 mph - N/A   Clear
1:52 PM 106.0 °F 37.0 °F 9% 29.56 in 10.0 mi SE 9.2 mph - N/A   Clear
2:52 PM 107.1 °F 30.9 °F 7% 29.53 in 10.0 mi NE 4.6 mph - N/A   Clear
3:52 PM 107.1 °F 27.0 °F 6% 29.52 in 10.0 mi SSE 10.4 mph - N/A   Clear
4:52 PM 107.1 °F 28.0 °F 6% 29.51 in 10.0 mi Calm Calm - N/A   Clear
5:52 PM 102.9 °F 32.0 °F 8% 29.51 in 10.0 mi NNW 10.4 mph 19.6 mph N/A   Clear
6:52 PM 99.0 °F 32.0 °F 10% 29.52 in 10.0 mi NNW 12.7 mph - N/A   Clear
7:52 PM 93.9 °F 37.9 °F 14% 29.54 in 10.0 mi NNW 10.4 mph - N/A   Clear
8:52 PM 91.0 °F 39.0 °F 16% 29.55 in 10.0 mi NNW 16.1 mph 21.9 mph N/A   Clear
9:52 PM 88.0 °F 43.0 °F 21% 29.57 in 9.0 mi NW 13.8 mph - N/A   Clear
10:52 PM 87.1 °F 39.9 °F 19% 29.57 in 10.0 mi NNW 21.9 mph 27.6 mph N/A   Clear
11:52 PM 87.1 °F 35.1 °F 16% 29.57 in 10.0 mi NNW 17.3 mph 27.6 mph N/A   Clear